BAW4CH EGCC-EKCH

Flight info

Callsign BAW4CH
Flight time 1h 26m
Altitude 37000
Route SONEX L975 DESIG L603 LAMIX UT29 LIBSO UL975 ERDOW DCT BAZNA DCT ODMOS DCT ROPAL DCT LESRA DCT TESPI
Aircraft A319/M-SDE3FGHIRWY/LB1

Departure

Time 2026-04-25 11:48
Airport Manchester Airport (EGCC)

Arrival

Time 2026-04-25 13:15
Airport Copenhagen Kastrup Airport (EKCH)
Time Latitude Longitude Altitude Speed Heading
2026-04-25 11:32 53.35919 -2.27101 260 ft 0 kts 65°
2026-04-25 11:38 53.35909 -2.27140 260 ft 3 kts 65°
2026-04-25 11:38 53.35906 -2.27180 259 ft 3 kts 110°
2026-04-25 11:38 53.35924 -2.27208 258 ft 3 kts 162°
2026-04-25 11:39 53.35938 -2.27210 258 ft 0 kts 189°
2026-04-25 11:40 53.35936 -2.27210 258 ft 1 kts 188°
2026-04-25 11:40 53.35916 -2.27215 257 ft 5 kts 187°
2026-04-25 11:40 53.35868 -2.27220 256 ft 8 kts 174°
2026-04-25 11:41 53.35811 -2.27177 257 ft 9 kts 147°
2026-04-25 11:41 53.35753 -2.27183 256 ft 11 kts 226°
2026-04-25 11:41 53.35689 -2.27311 249 ft 17 kts 232°
2026-04-25 11:41 53.35607 -2.27478 245 ft 19 kts 230°
2026-04-25 11:42 53.35517 -2.27662 242 ft 21 kts 230°
2026-04-25 11:42 53.35463 -2.27868 238 ft 18 kts 264°
2026-04-25 11:42 53.35395 -2.28020 238 ft 16 kts 226°
2026-04-25 11:42 53.35308 -2.28166 235 ft 18 kts 224°
2026-04-25 11:43 53.35217 -2.28330 232 ft 20 kts 230°
2026-04-25 11:43 53.35125 -2.28514 229 ft 21 kts 231°
2026-04-25 11:43 53.35032 -2.28714 226 ft 22 kts 232°
2026-04-25 11:43 53.34922 -2.28901 221 ft 23 kts 227°
2026-04-25 11:44 53.34806 -2.29070 212 ft 21 kts 198°
2026-04-25 11:44 53.34689 -2.29013 212 ft 14 kts 149°
2026-04-25 11:44 53.34678 -2.28937 213 ft 4 kts 49°
2026-04-25 11:44 53.34683 -2.28926 213 ft 0 kts 51°
2026-04-25 11:47 53.34695 -2.28902 214 ft 19 kts 51°
2026-04-25 11:47 53.34941 -2.28394 229 ft 90 kts 51°
2026-04-25 11:48 53.35471 -2.27300 250 ft 149 kts 51°
2026-04-25 11:48 53.36132 -2.25930 817 ft 150 kts 51°
2026-04-25 11:48 53.36773 -2.24591 1400 ft 155 kts 51°
2026-04-25 11:48 53.37474 -2.23122 1924 ft 167 kts 51°
2026-04-25 11:49 53.38221 -2.21550 2418 ft 183 kts 51°
2026-04-25 11:49 53.39043 -2.19819 2939 ft 201 kts 51°
2026-04-25 11:49 53.39954 -2.17896 3500 ft 219 kts 51°
2026-04-25 11:49 53.40916 -2.15833 4092 ft 238 kts 51°
2026-04-25 11:50 53.41972 -2.13562 4688 ft 256 kts 51°
2026-04-25 11:50 53.43090 -2.11166 5392 ft 269 kts 51°
2026-04-25 11:50 53.44235 -2.08723 6300 ft 273 kts 51°
2026-04-25 11:50 53.45409 -2.06216 7219 ft 276 kts 50°
2026-04-25 11:51 53.46592 -2.03693 8100 ft 280 kts 50°
2026-04-25 11:51 53.47794 -2.01129 8965 ft 284 kts 50°
2026-04-25 11:51 53.49010 -1.98550 9786 ft 287 kts 49°
2026-04-25 11:51 53.50255 -1.95951 10558 ft 292 kts 50°
2026-04-25 11:52 53.51340 -1.92998 11016 ft 309 kts 68°
2026-04-25 11:52 53.51762 -1.89359 11369 ft 329 kts 84°
2026-04-25 11:52 53.51776 -1.85441 11696 ft 348 kts 93°
2026-04-25 11:52 53.51373 -1.81305 12068 ft 364 kts 103°
2026-04-25 11:53 53.50674 -1.77207 12697 ft 370 kts 106°
2026-04-25 11:53 53.49923 -1.73095 13398 ft 374 kts 106°
2026-04-25 11:53 53.49157 -1.68896 14071 ft 377 kts 106°
2026-04-25 11:53 53.48401 -1.64691 14753 ft 380 kts 106°
2026-04-25 11:54 53.47648 -1.60474 15413 ft 383 kts 106°
2026-04-25 11:54 53.46888 -1.56208 16052 ft 386 kts 106°
2026-04-25 11:54 53.45330 -1.47518 17296 ft 392 kts 106°
2026-04-25 11:55 53.44541 -1.43133 17892 ft 396 kts 107°
2026-04-25 11:55 53.43755 -1.38769 18477 ft 399 kts 107°
2026-04-25 11:55 53.42942 -1.34277 19056 ft 402 kts 107°
2026-04-25 11:55 53.42136 -1.29830 19597 ft 405 kts 107°
2026-04-25 11:56 53.41316 -1.25310 20139 ft 408 kts 107°
2026-04-25 11:56 53.40495 -1.20785 20644 ft 412 kts 107°
2026-04-25 11:56 53.39650 -1.16138 21147 ft 416 kts 107°
2026-04-25 11:56 53.38805 -1.11515 21640 ft 419 kts 107°
2026-04-25 11:57 53.37954 -1.06864 22125 ft 422 kts 107°
2026-04-25 11:57 53.37097 -1.02200 22612 ft 425 kts 107°
2026-04-25 11:57 53.36229 -0.97481 23074 ft 428 kts 107°
2026-04-25 11:57 53.35357 -0.92756 23527 ft 430 kts 107°
2026-04-25 11:58 53.34474 -0.87978 23987 ft 433 kts 107°
2026-04-25 11:58 53.33578 -0.83143 24428 ft 436 kts 107°
2026-04-25 11:58 53.32674 -0.78283 24864 ft 439 kts 107°
2026-04-25 11:58 53.31821 -0.73453 25267 ft 442 kts 102°
2026-04-25 11:59 53.31561 -0.68329 25641 ft 445 kts 86°
2026-04-25 11:59 53.32140 -0.63294 26055 ft 446 kts 70°
2026-04-25 11:59 53.33360 -0.58564 26464 ft 448 kts 63°
2026-04-25 12:00 53.36096 -0.49161 27193 ft 454 kts 63°
2026-04-25 12:00 53.37477 -0.44341 27568 ft 458 kts 63°
2026-04-25 12:00 53.40177 -0.34710 28301 ft 463 kts 64°
2026-04-25 12:01 53.41551 -0.29809 28673 ft 465 kts 64°
2026-04-25 12:01 53.42925 -0.24920 29147 ft 464 kts 64°
2026-04-25 12:01 53.44277 -0.20100 29651 ft 462 kts 64°
2026-04-25 12:01 53.45647 -0.15208 30132 ft 461 kts 64°
2026-04-25 12:02 53.48347 -0.05524 31023 ft 460 kts 64°
2026-04-25 12:02 53.49703 -0.00750 31436 ft 459 kts 62°
2026-04-25 12:02 53.51204 0.03950 31837 ft 458 kts 59°
2026-04-25 12:03 53.52878 0.08546 32241 ft 457 kts 55°
2026-04-25 12:03 53.54679 0.12903 32632 ft 456 kts 52°
2026-04-25 12:03 53.56620 0.17069 33005 ft 455 kts 48°
2026-04-25 12:03 53.58678 0.21044 33391 ft 454 kts 46°
2026-04-25 12:04 53.60790 0.24965 33788 ft 453 kts 46°
2026-04-25 12:04 53.62898 0.28861 34174 ft 452 kts 45°
2026-04-25 12:04 53.65009 0.32773 34540 ft 451 kts 45°
2026-04-25 12:04 53.67096 0.36656 34898 ft 451 kts 46°
2026-04-25 12:05 53.69201 0.40583 35271 ft 450 kts 46°
2026-04-25 12:05 53.71276 0.44474 35630 ft 448 kts 45°
2026-04-25 12:05 53.73334 0.48337 35922 ft 448 kts 45°
2026-04-25 12:05 53.75428 0.52274 36173 ft 449 kts 45°
2026-04-25 12:06 53.77504 0.56182 36413 ft 450 kts 45°
2026-04-25 12:06 53.79577 0.60095 36640 ft 450 kts 45°
2026-04-25 12:06 53.81659 0.64031 36879 ft 450 kts 45°
2026-04-25 12:06 53.83751 0.67991 37114 ft 450 kts 46°
2026-04-25 12:07 53.87917 0.75901 37198 ft 451 kts 46°
2026-04-25 12:07 53.92012 0.83821 37195 ft 450 kts 49°
2026-04-25 12:08 53.95821 0.92281 37197 ft 451 kts 51°
2026-04-25 12:08 53.99534 1.00803 37195 ft 451 kts 51°
2026-04-25 12:09 54.03254 1.09353 37194 ft 451 kts 51°
2026-04-25 12:09 54.06958 1.17883 37196 ft 451 kts 50°
2026-04-25 12:10 54.08821 1.22180 36889 ft 450 kts 50°
2026-04-25 12:10 54.10653 1.26410 37103 ft 451 kts 50°
2026-04-25 12:10 54.14388 1.35058 37191 ft 452 kts 50°
2026-04-25 12:11 54.18066 1.43634 37197 ft 452 kts 51°
2026-04-25 12:11 54.21500 1.52644 37199 ft 453 kts 54°
2026-04-25 12:12 54.24812 1.61701 37200 ft 453 kts 54°
2026-04-25 12:12 54.28120 1.70775 37199 ft 452 kts 54°
2026-04-25 12:13 54.31441 1.79901 37197 ft 452 kts 54°
2026-04-25 12:13 54.34734 1.88973 37194 ft 452 kts 54°
2026-04-25 12:14 54.38044 1.98126 37188 ft 452 kts 54°
2026-04-25 12:14 54.41323 2.07226 37184 ft 452 kts 54°
2026-04-25 12:15 54.44596 2.16344 37183 ft 451 kts 54°
2026-04-25 12:15 54.47861 2.25473 37183 ft 450 kts 54°
2026-04-25 12:16 54.51127 2.34637 37183 ft 450 kts 54°
2026-04-25 12:16 54.54383 2.43808 37180 ft 450 kts 54°
2026-04-25 12:17 54.57628 2.52983 37181 ft 450 kts 54°
2026-04-25 12:17 54.60858 2.62153 37182 ft 449 kts 53°
2026-04-25 12:18 54.64080 2.71330 37179 ft 449 kts 54°
2026-04-25 12:18 54.67286 2.80496 37175 ft 448 kts 54°
2026-04-25 12:19 54.72090 2.94296 37174 ft 448 kts 54°
2026-04-25 12:20 54.75312 3.03485 37174 ft 447 kts 52°
2026-04-25 12:20 54.78857 3.12130 37173 ft 444 kts 49°
2026-04-25 12:21 54.82535 3.20656 37175 ft 443 kts 48°
2026-04-25 12:21 54.86210 3.29208 37176 ft 443 kts 48°
2026-04-25 12:22 54.89862 3.37749 37170 ft 442 kts 48°
2026-04-25 12:22 54.93492 3.46280 37174 ft 442 kts 48°
2026-04-25 12:23 54.97137 3.54875 37166 ft 441 kts 48°
2026-04-25 12:23 55.00735 3.63391 37165 ft 441 kts 48°
2026-04-25 12:24 55.04366 3.72015 37164 ft 441 kts 49°
2026-04-25 12:24 55.07966 3.80595 37164 ft 441 kts 49°
2026-04-25 12:25 55.11525 3.89287 37156 ft 443 kts 51°
2026-04-25 12:25 55.14624 3.98603 37155 ft 448 kts 58°
2026-04-25 12:26 55.17158 4.08508 37149 ft 450 kts 62°
2026-04-25 12:26 55.19546 4.18589 37143 ft 450 kts 62°
2026-04-25 12:27 55.21927 4.28662 37141 ft 451 kts 61°
2026-04-25 12:27 55.24316 4.38777 37140 ft 451 kts 61°
2026-04-25 12:28 55.26697 4.48902 37137 ft 452 kts 61°
2026-04-25 12:28 55.29071 4.59044 37133 ft 451 kts 61°
2026-04-25 12:29 55.31449 4.69243 37132 ft 451 kts 62°
2026-04-25 12:29 55.33800 4.79372 37131 ft 452 kts 62°
2026-04-25 12:30 55.36153 4.89573 37130 ft 451 kts 62°
2026-04-25 12:30 55.38311 4.99938 37127 ft 456 kts 66°
2026-04-25 12:31 55.39819 5.10722 37128 ft 461 kts 72°
2026-04-25 12:31 55.41081 5.21778 37121 ft 462 kts 72°
2026-04-25 12:32 55.42332 5.32840 37117 ft 463 kts 72°
2026-04-25 12:32 55.43574 5.43853 37119 ft 463 kts 71°
2026-04-25 12:33 55.44812 5.54901 37112 ft 463 kts 72°
2026-04-25 12:33 55.46053 5.66043 37107 ft 463 kts 72°
2026-04-25 12:34 55.47280 5.77138 37107 ft 465 kts 72°
2026-04-25 12:34 55.48499 5.88298 37110 ft 465 kts 72°
2026-04-25 12:35 55.49707 5.99440 37106 ft 466 kts 72°
2026-04-25 12:35 55.50904 6.10579 37095 ft 466 kts 72°
2026-04-25 12:36 55.52101 6.21813 37092 ft 466 kts 72°
2026-04-25 12:36 55.53283 6.33019 37092 ft 467 kts 72°
2026-04-25 12:37 55.54458 6.44261 37080 ft 469 kts 72°
2026-04-25 12:37 55.55627 6.55547 37079 ft 470 kts 72°
2026-04-25 12:38 55.56780 6.66807 37070 ft 470 kts 72°
2026-04-25 12:38 55.57935 6.78167 37064 ft 471 kts 72°
2026-04-25 12:39 55.59079 6.89536 37056 ft 472 kts 72°
2026-04-25 12:39 55.60209 7.00885 37059 ft 472 kts 72°
2026-04-25 12:40 55.61336 7.12302 37030 ft 474 kts 72°
2026-04-25 12:40 55.62454 7.23725 37036 ft 476 kts 72°
2026-04-25 12:41 55.63566 7.35245 37028 ft 477 kts 72°
2026-04-25 12:41 55.64674 7.46828 37018 ft 479 kts 72°
2026-04-25 12:42 55.65768 7.58376 36988 ft 480 kts 72°
2026-04-25 12:42 55.66859 7.70008 37004 ft 482 kts 73°
2026-04-25 12:43 55.67937 7.81641 37014 ft 483 kts 73°
2026-04-25 12:43 55.69548 7.99271 37013 ft 487 kts 73°
2026-04-25 12:44 55.70608 8.11048 36983 ft 485 kts 72°
2026-04-25 12:45 55.72182 8.28718 36977 ft 488 kts 73°
2026-04-25 12:45 55.73734 8.46490 36974 ft 488 kts 73°
2026-04-25 12:46 55.74759 8.58364 36959 ft 490 kts 73°
2026-04-25 12:46 55.75769 8.70259 36956 ft 491 kts 73°
2026-04-25 12:47 55.76780 8.82210 36943 ft 494 kts 73°
2026-04-25 12:47 55.77784 8.94310 36920 ft 496 kts 73°
2026-04-25 12:48 55.78277 9.00328 36796 ft 496 kts 73°
2026-04-25 12:48 55.78764 9.06328 36519 ft 493 kts 73°
2026-04-25 12:48 55.79250 9.12312 36290 ft 492 kts 73°
2026-04-25 12:48 55.79733 9.18301 36088 ft 489 kts 73°
2026-04-25 12:49 55.80207 9.24236 35818 ft 486 kts 73°
2026-04-25 12:49 55.80680 9.30156 35337 ft 490 kts 72°
2026-04-25 12:49 55.81158 9.36149 34692 ft 495 kts 72°
2026-04-25 12:49 55.81638 9.42189 33819 ft 500 kts 72°
2026-04-25 12:50 55.82119 9.48268 33028 ft 502 kts 72°
2026-04-25 12:50 55.82594 9.54355 32264 ft 503 kts 73°
2026-04-25 12:50 55.83072 9.60525 31500 ft 504 kts 73°
2026-04-25 12:50 55.83548 9.66699 30699 ft 507 kts 74°
2026-04-25 12:51 55.84021 9.72897 29884 ft 508 kts 74°
2026-04-25 12:51 55.84488 9.79081 29063 ft 510 kts 75°
2026-04-25 12:51 55.84956 9.85275 28224 ft 512 kts 75°
2026-04-25 12:51 55.85422 9.91517 27486 ft 511 kts 75°
2026-04-25 12:52 55.85877 9.97743 26965 ft 505 kts 75°
2026-04-25 12:52 55.86325 10.03923 26428 ft 500 kts 75°
2026-04-25 12:52 55.86765 10.09986 25889 ft 495 kts 75°
2026-04-25 12:52 55.87203 10.15986 25349 ft 491 kts 75°
2026-04-25 12:53 55.87585 10.21970 24903 ft 494 kts 80°
2026-04-25 12:53 55.87532 10.28102 24649 ft 501 kts 88°
2026-04-25 12:53 55.87240 10.34342 24395 ft 503 kts 90°
2026-04-25 12:53 55.86907 10.40477 24142 ft 500 kts 89°
2026-04-25 12:54 55.86597 10.46596 23893 ft 500 kts 89°
2026-04-25 12:54 55.86317 10.52713 23646 ft 497 kts 88°
2026-04-25 12:54 55.86058 10.58792 23400 ft 495 kts 88°
2026-04-25 12:54 55.85813 10.64900 23152 ft 496 kts 88°
2026-04-25 12:55 55.85569 10.71036 22894 ft 495 kts 88°
2026-04-25 12:55 55.85405 10.75099 22706 ft 493 kts 88°
2026-04-25 12:55 55.85091 10.83103 22275 ft 491 kts 89°
2026-04-25 12:55 55.84847 10.89142 21874 ft 488 kts 89°
2026-04-25 12:56 55.84602 10.95130 21391 ft 484 kts 89°
2026-04-25 12:56 55.84358 11.01014 20884 ft 481 kts 89°
2026-04-25 12:56 55.84111 11.06875 20374 ft 478 kts 89°
2026-04-25 12:56 55.83860 11.12723 19909 ft 474 kts 89°
2026-04-25 12:57 55.83609 11.18576 19433 ft 470 kts 89°
2026-04-25 12:57 55.83360 11.24311 18932 ft 468 kts 89°
2026-04-25 12:57 55.83107 11.30032 18472 ft 464 kts 89°
2026-04-25 12:57 55.82856 11.35733 18007 ft 461 kts 89°
2026-04-25 12:58 55.82605 11.41340 17523 ft 459 kts 89°
2026-04-25 12:58 55.82354 11.46913 17039 ft 456 kts 89°
2026-04-25 12:58 55.82101 11.52474 16568 ft 453 kts 89°
2026-04-25 12:58 55.81844 11.58083 16065 ft 450 kts 90°
2026-04-25 12:59 55.81590 11.63526 15595 ft 447 kts 90°
2026-04-25 12:59 55.81328 11.69080 15111 ft 444 kts 91°
2026-04-25 12:59 55.81074 11.74434 14618 ft 440 kts 91°
2026-04-25 12:59 55.80817 11.79837 14150 ft 437 kts 92°
2026-04-25 13:00 55.80558 11.85188 13664 ft 433 kts 92°
2026-04-25 13:00 55.80384 11.88711 13347 ft 431 kts 91°
2026-04-25 13:00 55.80040 11.95675 12825 ft 422 kts 91°
2026-04-25 13:00 55.79781 12.00877 12313 ft 420 kts 92°
2026-04-25 13:01 55.79522 12.06030 11771 ft 419 kts 92°
2026-04-25 13:01 55.79261 12.11172 11252 ft 417 kts 92°
2026-04-25 13:01 55.78998 12.16317 10757 ft 414 kts 92°
2026-04-25 13:01 55.78741 12.21335 10448 ft 405 kts 92°
2026-04-25 13:02 55.78480 12.26287 10218 ft 395 kts 91°
2026-04-25 13:02 55.78230 12.31036 10060 ft 383 kts 91°
2026-04-25 13:02 55.77987 12.35658 9921 ft 371 kts 92°
2026-04-25 13:02 55.77750 12.40151 9800 ft 360 kts 92°
2026-04-25 13:03 55.77518 12.44511 9599 ft 353 kts 92°
2026-04-25 13:03 55.77287 12.48802 9327 ft 348 kts 91°
2026-04-25 13:03 55.76989 12.53053 9032 ft 346 kts 101°
2026-04-25 13:03 55.76111 12.56945 8763 ft 343 kts 120°
2026-04-25 13:04 55.74831 12.60500 8499 ft 338 kts 124°
2026-04-25 13:04 55.73518 12.63856 8239 ft 334 kts 125°
2026-04-25 13:04 55.72199 12.67246 7976 ft 329 kts 125°
2026-04-25 13:04 55.70950 12.70538 7720 ft 325 kts 124°
2026-04-25 13:05 55.69706 12.73876 7450 ft 321 kts 124°
2026-04-25 13:05 55.68508 12.77119 7076 ft 311 kts 123°
2026-04-25 13:05 55.67350 12.80257 6659 ft 302 kts 123°
2026-04-25 13:05 55.66213 12.83333 6196 ft 295 kts 123°
2026-04-25 13:06 55.65125 12.86274 5802 ft 285 kts 123°
2026-04-25 13:06 55.64037 12.89211 5412 ft 284 kts 123°
2026-04-25 13:06 55.62938 12.92108 5041 ft 285 kts 129°
2026-04-25 13:06 55.61501 12.94389 4661 ft 274 kts 150°
2026-04-25 13:07 55.59913 12.96114 4278 ft 266 kts 154°
2026-04-25 13:07 55.58314 12.97729 3897 ft 268 kts 155°
2026-04-25 13:07 55.56672 12.99359 3516 ft 271 kts 155°
2026-04-25 13:07 55.55062 13.00950 3346 ft 266 kts 155°
2026-04-25 13:08 55.53471 13.02520 3208 ft 259 kts 155°
2026-04-25 13:08 55.51869 13.03800 3056 ft 245 kts 176°
2026-04-25 13:08 55.50268 13.03671 2947 ft 218 kts 212°
2026-04-25 13:08 55.49169 13.02229 2934 ft 183 kts 248°
2026-04-25 13:09 55.48903 13.00244 2941 ft 163 kts 286°
2026-04-25 13:09 55.49379 12.98507 2965 ft 160 kts 305°
2026-04-25 13:09 55.50056 12.96951 2958 ft 159 kts 307°
2026-04-25 13:09 55.50729 12.95382 2949 ft 159 kts 305°
2026-04-25 13:10 55.51345 12.93862 2930 ft 150 kts 304°
2026-04-25 13:10 55.51932 12.92349 2944 ft 148 kts 303°
2026-04-25 13:10 55.52498 12.90849 3012 ft 148 kts 303°
2026-04-25 13:10 55.53061 12.89332 2966 ft 148 kts 302°
2026-04-25 13:11 55.53622 12.87805 2817 ft 148 kts 302°
2026-04-25 13:11 55.54181 12.86277 2613 ft 148 kts 302°
2026-04-25 13:11 55.54739 12.84752 2412 ft 148 kts 302°
2026-04-25 13:11 55.55295 12.83233 2215 ft 147 kts 302°
2026-04-25 13:12 55.55848 12.81721 2018 ft 147 kts 302°
2026-04-25 13:12 55.56402 12.80212 1820 ft 146 kts 302°
2026-04-25 13:12 55.56952 12.78712 1635 ft 155 kts 302°
2026-04-25 13:12 55.57361 12.77599 1502 ft 165 kts 302°
2026-04-25 13:13 55.58203 12.75315 1189 ft 166 kts 302°
2026-04-25 13:13 55.58816 12.73659 951 ft 156 kts 301°
2026-04-25 13:13 55.59380 12.72130 765 ft 144 kts 301°
2026-04-25 13:13 55.59903 12.70716 579 ft 131 kts 301°
2026-04-25 13:14 55.60376 12.69430 392 ft 118 kts 300°
2026-04-25 13:14 55.60808 12.68279 201 ft 109 kts 300°
2026-04-25 13:14 55.61234 12.67145 80 ft 111 kts 300°
2026-04-25 13:14 55.61640 12.66034 15 ft 104 kts 298°
2026-04-25 13:15 55.61968 12.65122 15 ft 63 kts 303°
2026-04-25 13:15 55.62111 12.64737 15 ft 19 kts 303°
2026-04-25 13:15 55.62166 12.64720 15 ft 3 kts 34°
2026-04-25 13:15 55.62188 12.64746 15 ft 3 kts 32°
2026-04-25 13:16 55.62214 12.64775 15 ft 0 kts 34°
2026-04-25 13:16 55.62215 12.64776 15 ft 0 kts 33°
2026-04-25 13:16 55.62219 12.64781 15 ft 0 kts 33°
2026-04-25 13:16 55.62244 12.64810 15 ft 8 kts 36°
2026-04-25 13:17 55.62281 12.64857 15 ft 9 kts 32°
2026-04-25 13:17 55.62312 12.64947 17 ft 7 kts 107°
2026-04-25 13:17 55.62292 12.65027 18 ft 7 kts 123°
2026-04-25 13:17 55.62271 12.65137 17 ft 9 kts 71°
2026-04-25 13:18 55.62329 12.65204 18 ft 10 kts
2026-04-25 13:18 55.62400 12.65199 18 ft 9 kts 356°
2026-04-25 13:18 55.62466 12.65199 19 ft 9 kts 357°
2026-04-25 13:18 55.62536 12.65195 18 ft 10 kts 359°
2026-04-25 13:19 55.62606 12.65193 19 ft 9 kts 358°
2026-04-25 13:19 55.62671 12.65180 19 ft 8 kts 328°
2026-04-25 13:19 55.62690 12.65114 20 ft 4 kts 289°
2026-04-25 13:19 55.62695 12.65089 20 ft 0 kts 290°